GFSGL_850_thetae_132.txt.gz
Theta_e
321 321 321 322 321 321 323 324 325 325 326 327 328 328 328 328 327 326 325 324 324 324 324 324 325 325 324 324 323 320 319 318 317 316 317 316 315 314 311 309 309 307 305
320 321 321 321 321 321 322 323 324 325 327 327 328 327 326 326 326 326 325 324 324 324 323 323 324 323 323 322 321 320 318 317 316 315 315 314 312 311 309 307 306 304 301
320 320 320 320 320 320 321 322 324 325 324 325 326 326 326 326 326 325 323 323 323 323 323 323 322 321 319 319 318 317 316 315 314 313 312 309 307 307 307 305 302 300 299
315 317 320 320 320 320 320 322 322 322 323 324 324 324 324 322 322 322 322 321 319 320 319 320 319 317 316 315 315 314 313 313 312 311 309 307 306 306 305 303 300 297 296
314 315 316 317 318 319 319 320 321 322 321 321 322 321 321 320 319 320 319 320 319 319 317 317 316 315 314 312 311 310 310 309 307 306 304 305 305 304 301 298 297 297 295
313 315 317 317 318 318 318 318 317 315 314 314 314 316 315 316 317 318 319 319 316 316 315 315 315 312 309 310 310 309 308 307 306 306 306 305 302 300 298 295 294 297 297
310 310 310 311 311 310 310 310 309 309 309 309 310 310 310 312 313 313 313 313 314 312 312 309 308 308 307 306 306 306 307 307 307 306 305 302 301 300 298 296 297 296 292
310 310 310 310 310 310 310 309 309 308 308 308 308 308 308 309 310 311 310 310 309 308 308 308 307 306 306 306 307 307 307 307 304 303 301 299 298 298 298 297 296 291 290
310 310 310 310 310 310 309 309 308 308 308 308 308 308 308 308 308 307 307 307 308 308 308 307 306 306 305 306 307 305 304 303 302 301 299 297 297 297 296 292 290 289 289
310 310 310 310 309 309 308 308 308 307 307 308 308 308 307 307 307 307 307 307 307 307 305 304 304 305 305 305 304 303 303 302 301 299 298 297 295 293 291 289 289 289 288
310 309 309 310 309 308 307 307 307 307 307 307 307 307 306 306 306 306 306 306 306 305 304 303 302 303 304 304 302 302 301 299 299 297 296 294 291 289 289 290 290 290 288
310 309 309 309 308 307 306 306 306 307 307 307 307 306 306 305 305 305 305 305 306 305 304 304 304 303 303 302 300 299 299 297 295 293 292 290 290 292 293 293 292 290 289
309 309 309 308 307 306 306 306 306 306 306 306 305 305 305 304 304 304 304 304 304 304 304 303 303 302 301 300 298 297 295 294 294 293 294 294 292 291 291 291 290 288 288
308 308 308 307 306 305 305 305 306 306 305 305 305 304 304 303 303 303 303 302 302 302 302 301 300 298 297 296 295 294 294 293 292 291 291 291 290 289 288 288 288 287 287
307 307 307 306 305 305 305 305 305 305 304 304 304 304 304 303 302 301 300 299 297 296 294 293 292 292 291 291 290 290 289 289 288 287 287 286 286 286 286 286 286 285 285
306 306 305 305 304 304 304 303 303 302 302 302 302 302 301 300 298 296 293 291 290 289 289 288 287 287 286 286 286 285 285 285 285 285 284 284 284 284 284 284 284 284 283
305 305 305 304 303 303 303 302 301 299 299 299 299 298 296 294 291 289 288 288 287 287 287 286 286 286 285 285 285 285 284 284 284 284 283 283 283 282 282 282 282 282 282
302 303 303 302 302 301 301 300 299 299 298 296 294 291 289 288 288 287 287 286 286 286 285 285 285 285 285 284 284 284 283 283 283 283 283 282 282 282 282 281 281 281 280
301 301 301 301 301 300 299 298 298 297 296 293 290 287 286 286 286 286 285 285 285 285 285 284 284 284 284 284 284 283 283 283 283 283 282 282 282 281 281 281 280 280 280
298 299 300 301 300 299 299 298 298 294 292 289 287 287 286 285 285 285 285 285 284 284 284 284 284 284 283 283 283 283 282 282 282 282 281 281 281 280 280 280 280 280 280
296 298 298 298 299 298 297 296 292 289 287 286 286 285 285 285 285 284 284 284 284 284 284 284 283 283 283 283 282 282 282 281 281 281 280 280 280 279 279 279 279 279 278
295 295 296 296 295 294 293 289 287 285 285 285 284 284 284 284 284 284 284 284 284 284 283 283 283 283 282 282 282 281 281 280 280 280 279 279 279 278 278 278 278 277 277
292 293 292 292 292 289 286 285 284 284 284 284 284 284 283 283 284 284 284 284 284 283 283 283 282 282 282 281 281 280 280 280 279 279 278 278 278 277 277 277 276 276 275
288 289 290 289 286 284 284 283 283 283 283 283 283 283 283 284 283 284 284 284 283 283 282 282 281 281 280 280 280 279 279 279 278 278 277 277 277 276 276 275 274 274 274
283 283 282 282 282 282 282 282 282 282 282 282 282 283 285 286 285 283 283 283 282 282 281 280 280 279 279 279 278 278 278 278 277 277 276 276 275 275 274 274 274 274 274
280 280 280 281 281 281 281 282 282 284 285 286 286 286 283 281 282 282 282 281 281 280 279 279 279 278 278 278 277 277 277 276 276 275 275 274 274 273 273 273 272 272 272

GFSGL_850_thetae_138.txt.gz
Theta_e
315 317 321 323 327 328 329 329 329 330 329 329 328 328 327 325 326 326 327 328 328 328 327 326 326 327 325 324 324 324 324 324 322 321 320 317 317 316 315 313 312 310 309
314 315 315 316 319 323 325 326 327 328 330 330 329 329 328 327 326 326 327 327 328 327 327 328 326 325 324 323 324 324 324 323 321 320 319 317 316 314 314 312 310 309 308
314 313 314 314 315 319 320 322 324 326 327 329 329 329 328 327 326 326 327 328 327 326 327 327 326 325 324 322 322 322 323 321 320 318 317 315 313 312 311 309 308 307 306
312 313 314 313 313 314 317 321 323 325 326 326 328 330 329 329 329 327 328 326 327 326 326 326 325 323 322 322 320 321 321 319 317 316 314 312 310 309 308 306 305 305 303
312 312 313 313 312 311 313 315 319 325 328 328 329 328 329 328 328 328 327 326 326 325 323 323 322 321 320 319 319 317 317 315 314 312 311 308 307 307 305 303 304 302 302
312 312 312 312 312 311 310 313 316 321 324 326 326 327 327 326 326 325 324 324 323 322 322 320 319 319 318 319 315 316 314 312 311 309 308 308 307 304 303 303 301 300 300
311 311 311 312 312 312 310 311 316 317 319 321 322 323 323 323 323 322 322 322 321 320 321 318 317 317 315 317 316 314 312 310 308 308 307 306 305 303 303 300 299 300 299
309 310 311 311 312 312 311 309 312 317 319 320 320 320 320 320 320 319 320 321 319 317 316 315 315 316 316 315 313 309 307 308 307 306 305 305 303 302 300 298 298 298 296
309 310 310 311 311 312 311 310 309 313 317 318 319 319 318 316 315 315 315 317 317 316 315 315 315 313 313 310 307 306 306 305 305 305 305 304 302 300 298 297 297 294 292
307 310 310 310 311 312 312 311 309 308 310 314 314 313 313 313 312 312 312 313 313 313 312 312 312 312 309 307 306 305 305 305 305 304 303 300 299 298 297 295 292 291 294
307 308 311 310 310 311 311 311 309 307 308 309 309 309 310 310 310 310 310 309 309 310 310 310 309 307 306 306 305 304 303 303 303 302 300 298 297 295 293 291 293 294 293
305 307 310 311 310 310 309 310 310 307 307 307 308 308 308 308 308 308 308 308 309 307 306 306 306 306 305 304 304 302 302 302 301 300 298 296 295 292 291 293 292 290 288
304 306 307 310 311 309 309 308 309 307 306 307 307 307 307 307 307 308 308 307 306 306 306 305 305 304 303 303 302 302 302 301 299 297 295 293 293 293 292 290 288 286 286
302 305 307 307 309 309 307 306 305 307 306 305 306 307 307 307 307 307 306 306 306 305 302 303 303 303 302 301 301 300 299 298 296 295 294 293 292 290 287 286 285 285 285
300 302 304 305 307 307 307 305 305 305 306 306 306 306 307 306 306 306 305 305 305 304 302 301 301 300 300 299 297 296 295 294 294 293 291 289 287 286 285 285 284 284 284
295 297 299 299 302 304 303 305 304 302 302 303 304 305 305 305 305 304 303 302 303 303 301 300 299 298 298 297 295 294 293 293 292 289 287 285 285 285 284 284 284 283 283
291 293 295 295 296 297 298 299 300 300 298 299 300 301 304 303 303 303 301 300 298 299 299 299 298 297 296 295 293 292 291 288 286 285 285 284 284 284 284 283 283 283 282
288 289 290 292 291 294 294 294 295 294 295 296 297 299 299 302 301 300 300 297 294 293 295 296 296 295 294 292 289 287 286 285 285 284 284 284 283 283 283 283 282 282 282
285 287 288 289 290 291 292 292 293 293 294 294 295 297 297 298 300 299 297 297 294 293 291 292 292 291 288 287 286 285 285 284 284 284 283 283 283 283 282 282 282 281 281
283 284 285 287 289 290 290 291 292 292 292 293 294 295 296 294 293 292 292 292 292 293 291 289 288 286 285 285 284 284 284 284 283 283 283 283 282 282 282 281 281 280 280
281 282 283 285 287 289 290 290 291 291 291 291 292 292 294 294 293 291 290 291 292 291 288 287 285 285 284 284 284 283 283 283 283 283 282 282 282 281 281 280 280 280 279
278 279 281 282 284 286 288 289 289 289 289 289 289 288 288 289 289 289 288 288 288 286 285 284 284 284 284 283 283 283 283 284 282 282 282 281 281 281 280 279 279 279 278
277 277 278 280 281 282 283 284 285 285 286 286 286 286 286 287 287 287 286 285 285 284 283 283 283 283 283 283 283 284 284 282 282 281 281 280 280 280 279 279 278 278 278
277 278 278 278 278 278 279 280 280 281 282 282 283 284 284 285 285 286 285 284 283 282 282 282 282 282 283 286 286 283 282 281 281 281 280 279 279 278 278 278 277 277 277
277 277 277 277 277 277 277 278 278 278 279 279 280 281 280 280 280 281 281 281 281 281 282 282 282 285 286 284 281 280 280 280 280 280 279 279 278 277 277 277 276 276 276
274 275 275 276 276 276 276 277 277 277 278 278 278 278 278 278 279 279 279 280 280 280 281 283 284 283 283 280 279 279 280 280 279 278 278 277 277 277 276 276 275 275 274

GFSGL_850_thetae_141.txt.gz
Theta_e
312 313 314 315 317 321 324 327 328 328 329 330 331 330 330 329 329 329 327 326 327 327 326 326 326 326 326 325 324 326 326 324 323 322 320 319 319 319 317 315 315 314 312
312 312 313 312 314 318 321 323 326 328 328 329 329 330 330 329 329 329 328 326 326 325 326 327 326 326 325 324 326 326 326 323 323 323 320 320 318 317 316 314 312 311 309
311 311 312 312 312 312 313 316 320 323 326 327 328 328 329 329 329 329 329 328 327 326 327 326 326 326 326 326 327 325 324 323 323 322 320 320 318 317 314 312 309 307 306
311 311 311 312 312 312 311 311 315 318 322 324 324 325 327 327 328 328 327 325 326 327 326 327 327 325 326 326 326 325 323 322 322 320 319 318 317 314 311 309 307 305 303
309 309 310 311 311 311 312 311 310 313 317 321 323 324 325 326 326 327 326 326 325 324 323 324 324 326 326 325 324 323 321 321 319 318 318 315 313 312 309 307 304 303 303
308 309 309 309 310 311 311 311 311 310 311 318 323 323 324 325 325 325 325 325 325 324 324 323 323 324 324 323 321 321 320 317 317 317 314 313 311 309 307 305 303 302 300
307 309 309 309 310 310 310 311 311 311 309 310 318 322 321 322 323 324 324 323 322 322 323 322 322 321 321 320 318 319 317 316 315 314 312 310 308 307 306 304 303 302 300
301 304 308 309 310 310 310 310 311 312 311 308 310 318 320 320 321 322 322 322 322 321 321 320 319 318 318 317 317 316 314 314 313 312 310 308 306 305 304 302 301 300 299
300 301 303 306 309 310 311 310 310 310 312 311 308 310 319 320 320 320 320 320 319 319 318 317 315 315 316 315 314 315 313 312 310 306 306 306 305 304 303 302 300 300 298
300 300 302 303 304 307 310 311 310 310 310 312 311 308 310 318 318 318 318 318 316 316 315 315 314 314 313 313 313 312 311 309 306 305 303 303 304 303 302 299 299 297 292
299 299 300 302 303 304 307 310 311 310 310 310 311 311 308 312 316 316 315 315 315 315 314 314 313 312 312 311 311 310 308 306 305 304 303 302 301 301 299 297 295 293 295
297 298 299 300 302 303 305 307 310 310 309 309 310 310 309 307 309 313 313 312 312 312 312 312 311 310 309 309 309 306 305 304 303 302 301 300 300 299 297 294 293 294 291
295 296 297 298 300 303 304 305 307 309 310 308 308 310 309 308 307 307 308 309 308 308 308 307 307 306 306 306 306 304 304 303 302 301 300 300 299 297 294 292 293 290 287
293 294 294 295 297 300 302 303 304 306 307 308 307 307 308 308 306 306 306 306 305 304 304 303 302 302 302 304 303 302 302 301 301 301 300 298 295 293 293 292 289 286 285
290 291 291 292 292 293 296 298 299 303 302 303 305 304 303 305 306 305 304 304 303 303 303 301 301 299 299 299 298 299 299 299 298 298 296 294 293 292 291 288 285 284 284
285 287 288 288 290 292 291 295 296 297 299 300 300 297 298 299 299 301 302 302 301 301 301 300 300 300 299 298 297 297 296 296 296 294 293 293 291 289 286 284 284 284 283
281 282 283 285 286 288 289 288 290 294 294 294 294 295 295 295 295 297 297 299 300 300 299 300 299 299 299 298 297 296 296 296 294 292 292 290 287 284 284 284 283 283 283
279 280 280 281 283 284 286 286 288 290 292 293 293 294 295 295 295 295 296 296 297 298 298 298 297 297 297 297 296 294 294 293 292 291 289 286 284 284 283 283 283 283 282
277 278 278 279 280 281 283 285 288 289 290 291 292 292 293 294 294 295 296 296 296 296 297 296 296 296 296 296 295 293 292 291 290 287 285 284 283 283 283 283 283 282 282
276 276 277 278 279 280 282 284 287 289 290 290 291 291 292 292 293 293 294 293 293 293 293 293 292 293 293 293 292 291 291 288 285 284 283 283 283 283 283 283 282 282 282
276 276 276 277 278 279 281 283 284 287 289 290 290 290 290 290 291 292 292 291 291 291 290 291 291 292 291 291 290 288 286 284 284 283 283 283 282 284 283 282 282 281 281
275 275 276 276 276 277 278 279 281 282 284 286 287 287 289 289 289 290 290 290 289 289 289 289 289 289 289 288 286 285 284 283 283 282 282 284 284 282 282 281 281 281 280
274 275 275 276 276 276 276 276 277 278 279 280 281 282 284 285 286 286 286 286 287 287 287 287 287 286 285 284 283 283 283 283 283 285 285 284 282 281 281 280 280 279 279
273 273 273 274 275 275 274 274 274 275 276 276 277 279 279 280 282 283 284 284 285 285 285 285 284 283 282 282 282 282 282 285 285 283 281 281 281 280 280 279 279 278 278
270 271 272 272 272 272 273 273 273 273 274 274 274 275 276 277 278 279 280 281 282 283 282 281 281 281 281 281 282 284 285 284 282 281 280 280 279 279 279 278 278 277 277
268 268 268 269 269 270 270 270 271 272 271 272 273 273 274 274 275 276 276 277 278 278 278 279 279 279 280 282 282 282 282 281 279 279 279 279 278 278 278 277 277 276 275

GFSGL_850_thetae_144.txt.gz
Theta_e
311 311 312 312 311 313 317 319 320 322 323 325 326 327 328 329 329 329 329 329 329 328 327 327 327 326 326 325 325 325 325 324 324 323 323 322 321 319 318 318 317 316 315
310 311 311 311 311 311 311 312 317 321 323 324 324 325 327 328 328 328 328 328 329 329 328 327 325 328 324 325 325 325 326 325 324 324 323 322 321 320 318 317 316 315 313
307 308 309 310 311 311 311 311 310 311 315 319 322 323 324 325 326 327 327 328 328 328 328 328 327 327 325 325 324 325 325 325 323 324 323 322 321 317 317 315 316 313 311
304 306 308 309 309 309 310 311 311 311 310 311 316 320 322 324 325 325 326 327 327 328 328 327 326 326 324 324 323 324 325 324 322 324 323 321 321 319 316 314 312 312 309
301 301 303 307 309 309 309 310 310 311 311 311 310 313 317 321 323 324 325 326 327 327 328 327 326 325 324 324 324 325 325 324 323 322 322 321 319 317 315 315 310 309 307
301 302 301 300 303 307 309 309 310 310 310 311 312 310 310 316 319 321 323 324 326 327 327 327 325 325 324 324 324 324 324 324 322 323 321 319 316 317 313 312 310 307 304
298 298 300 301 300 301 304 307 309 310 310 310 311 311 311 309 311 319 321 323 325 324 324 325 324 324 323 323 323 324 323 322 321 321 319 318 316 316 314 310 308 306 304
297 298 298 298 299 300 300 302 304 308 310 310 311 310 311 312 309 309 317 319 321 321 322 323 323 322 322 323 322 322 320 320 319 317 317 316 314 313 311 308 307 305 302
296 296 297 297 297 298 299 299 301 303 306 309 310 311 311 311 311 309 312 317 318 319 320 321 321 321 321 320 320 319 318 318 317 316 315 314 312 310 308 305 304 302 301
295 295 295 295 296 296 297 298 299 300 303 305 307 310 310 310 310 310 307 312 316 317 317 318 319 319 319 318 317 316 315 315 314 313 313 311 309 306 306 304 303 303 300
292 293 294 294 294 295 295 296 297 299 300 303 304 306 309 310 310 310 309 307 312 314 315 315 316 316 316 315 315 315 313 314 313 311 309 306 304 302 304 303 302 300 299
291 292 293 292 292 292 293 294 295 296 297 300 303 304 306 308 310 309 309 308 306 312 313 314 313 313 313 312 312 312 312 311 310 308 305 303 302 302 302 302 300 298 295
288 289 290 290 290 290 291 291 290 292 293 295 296 301 304 306 308 309 308 307 306 305 309 311 310 310 310 310 309 309 309 309 308 305 304 302 302 302 301 299 297 294 291
283 285 286 287 288 288 288 289 290 291 291 291 292 294 297 301 304 303 305 304 304 303 305 307 306 307 307 307 306 306 306 307 306 305 304 302 301 300 298 296 294 292 292
279 281 282 283 283 285 286 286 287 288 286 287 289 291 293 294 297 296 296 296 298 300 301 303 304 304 303 303 303 303 303 303 303 303 302 301 300 297 296 295 291 291 291
278 279 279 279 280 280 282 285 285 286 286 285 288 290 291 292 293 294 294 294 295 295 296 299 301 301 301 301 300 301 301 301 301 300 300 300 299 296 294 292 290 290 286
276 277 277 277 277 276 277 278 281 286 285 285 287 289 291 291 293 294 294 294 294 294 295 295 298 299 299 300 300 299 300 299 298 298 299 298 296 295 292 290 289 285 284
277 277 275 274 274 274 275 276 278 280 281 283 286 289 290 291 291 293 294 294 294 294 294 295 295 297 298 298 298 297 297 296 295 295 295 296 295 294 292 290 286 284 283
276 276 276 275 275 274 275 276 277 278 279 282 285 288 290 290 290 291 292 293 293 294 294 294 294 295 296 296 297 297 296 297 296 295 293 293 292 291 289 285 283 283 283
276 276 276 276 275 274 274 274 275 276 277 279 281 282 285 288 289 290 290 291 293 293 293 293 293 293 294 294 294 294 294 293 293 292 291 290 290 288 285 284 283 283 283
275 275 275 275 275 274 273 273 273 274 275 276 277 279 281 283 285 288 289 290 291 292 292 292 292 292 291 291 290 290 290 289 289 289 289 288 288 284 283 283 283 282 282
271 272 273 274 273 274 273 272 272 273 273 273 275 277 277 279 280 281 283 286 288 290 290 291 291 290 290 290 290 289 289 288 289 289 288 287 284 283 282 282 282 283 281
269 269 270 270 271 272 272 272 272 272 272 272 272 273 274 274 275 276 277 279 281 283 285 286 287 288 288 287 287 287 288 288 288 287 285 283 282 282 283 285 284 282 280
269 269 269 269 269 269 269 269 270 270 270 271 271 271 272 272 272 273 274 275 277 279 280 281 282 283 284 284 285 285 285 286 285 283 282 282 283 286 285 284 282 280 279
268 268 268 268 268 268 268 267 267 267 268 269 269 270 270 270 272 272 273 273 274 275 277 277 279 279 281 282 283 283 283 282 281 281 284 285 284 283 283 282 280 279 278
267 267 267 267 267 267 266 266 266 266 266 266 266 268 269 269 269 270 271 272 272 273 274 275 276 277 278 279 279 279 279 280 282 282 281 281 281 281 280 279 278 278 278

GFSGL_850_thetae_147.txt.gz
Theta_e
307 309 309 310 311 311 311 311 310 311 314 318 321 322 323 324 324 325 326 326 326 326 327 326 326 326 325 325 323 323 322 323 323 323 323 323 323 322 321 321 319 319 318
304 304 305 307 309 309 310 310 310 311 311 310 311 315 321 322 323 324 325 326 327 328 328 327 327 326 326 325 325 323 323 322 322 323 323 323 323 322 322 321 319 319 318
302 302 302 302 302 304 307 309 309 310 310 310 311 310 310 316 321 324 326 324 325 326 326 327 327 327 327 327 326 325 324 323 323 323 323 323 322 322 320 320 319 317 317
299 300 300 301 301 301 301 301 304 308 309 310 310 310 310 311 310 318 321 321 323 324 325 325 326 327 327 328 327 326 326 324 324 323 323 322 322 321 320 319 318 316 315
298 298 298 299 299 299 300 301 301 301 303 307 309 310 310 310 311 310 311 318 320 322 325 324 324 325 326 327 327 327 326 325 324 323 323 322 321 320 319 318 317 314 314
296 297 297 297 297 297 298 298 299 300 300 300 302 306 309 310 310 310 310 309 316 319 323 324 323 324 325 326 326 327 326 325 324 324 322 321 320 320 320 319 315 315 310
294 295 295 296 296 296 296 297 297 298 298 299 300 300 302 306 309 310 310 310 309 311 318 320 321 322 325 325 324 326 325 325 324 323 322 321 322 321 321 317 316 315 314
293 293 294 294 295 295 295 295 296 296 297 298 298 299 299 301 303 307 309 310 309 309 309 315 318 319 321 321 323 324 324 322 322 322 322 321 321 320 320 316 316 314 310
290 291 292 292 293 293 294 294 294 295 295 296 297 298 298 299 300 302 305 308 309 309 309 310 315 318 319 319 321 322 322 322 322 322 320 319 319 318 316 315 313 310 307
289 289 289 289 289 290 290 291 292 292 293 294 295 296 297 298 298 299 303 305 308 309 309 309 308 315 317 318 319 320 320 321 320 319 319 318 317 317 315 314 312 310 308
286 287 287 287 288 288 288 289 289 290 291 291 292 294 295 296 297 297 299 303 305 307 308 309 309 308 314 315 317 318 318 318 318 317 316 316 315 314 312 311 309 307 306
284 284 284 284 285 285 285 286 286 287 288 289 290 292 292 293 295 296 297 298 301 303 305 306 307 307 309 312 313 314 315 315 315 316 315 313 312 311 310 308 306 305 304
283 284 284 283 283 283 283 284 284 283 284 285 285 286 288 288 290 292 293 294 296 297 299 302 302 302 305 308 310 311 311 311 312 313 312 312 310 309 308 304 302 302 301
281 281 281 281 282 282 281 281 281 280 280 281 279 279 281 283 285 289 291 293 292 294 295 297 299 299 301 304 306 307 309 308 309 309 310 310 309 306 304 302 301 301 299
280 280 280 280 280 280 279 277 276 277 276 276 277 279 281 283 284 287 288 290 291 292 293 294 294 296 298 300 302 304 305 306 307 307 306 306 306 304 302 301 300 298 296
279 279 279 278 278 277 277 277 277 275 275 277 279 281 282 283 285 288 289 290 291 292 293 293 294 294 295 296 297 300 302 303 304 304 304 303 303 302 300 299 298 296 294
279 279 279 277 277 277 276 276 275 278 278 279 278 277 278 280 285 287 289 290 291 291 292 293 293 293 294 294 295 296 298 300 301 302 301 300 299 298 299 298 297 294 291
278 278 278 276 276 275 275 274 274 274 275 276 278 278 278 280 283 285 288 290 290 290 291 292 293 293 294 294 294 295 295 297 298 299 298 298 297 296 295 294 294 293 290
275 274 274 275 275 274 274 274 274 273 274 274 275 277 276 277 280 281 284 286 285 287 289 290 293 293 293 294 294 294 294 295 296 297 297 296 295 294 293 294 293 292 289
273 272 272 271 271 272 273 274 273 273 272 272 272 272 270 274 275 276 277 277 279 281 284 288 290 291 293 293 293 293 293 293 293 294 294 293 292 291 290 290 289 288 287
272 272 272 272 271 270 270 270 270 270 270 271 271 271 269 272 272 272 273 273 273 275 278 281 284 288 291 292 292 293 292 292 292 291 290 290 289 288 287 286 286 287 287
271 271 271 271 270 270 269 268 267 267 267 268 270 271 271 271 271 271 272 272 273 273 273 276 279 281 284 287 289 290 291 291 290 289 289 289 288 287 287 287 287 287 284
270 270 270 269 269 268 268 267 267 267 267 266 267 267 268 269 269 270 270 271 272 272 273 273 274 277 279 281 282 284 285 287 288 288 287 287 286 286 287 286 286 283 282
269 269 269 268 268 267 267 267 266 266 266 266 266 266 266 266 266 268 269 270 270 271 272 272 272 273 274 276 277 279 281 281 283 283 284 285 285 285 285 284 282 282 283
268 268 268 267 267 266 266 266 266 266 265 265 265 265 265 266 266 266 266 267 269 270 270 271 272 272 273 274 275 275 276 277 279 280 281 283 284 284 283 282 283 283 283
268 268 267 266 266 266 265 265 265 265 265 265 264 264 264 264 265 265 265 266 266 267 269 269 270 271 272 273 273 274 275 276 277 278 280 281 281 281 282 283 282 281 281